This demonstration page uses our WeatherBlox Daily Observations layout. Learn more.

Left ArrowRight Arrow

39.01783, -85.05884

Hourly Observations for August 9, 2017

Temp ( °F °C ) Dew Point ( °F °C ) Humidity (%) Winds ( mph kmh ) Pressure ( in mb ) Visibility ( mi km ) Precip ( " mm )
12:52 am 00:52 Clear 65 18.3 56 13.3 73 73 Calm 30.16 1021 10 16 0.00 0.00
1:52 am 01:52 Clear 65 18.3 56 13.3 73 73 Calm 30.16 1021 10 16 0.00 0.00
2:52 am 02:52 Clear 58 14.4 56 13.3 93 93 Calm 30.16 1021 10 16 0.00 0.00
3:52 am 03:52 Clear 59 15 56 13.3 90 90 Calm 30.16 1021 10 16 0.00 0.00
4:52 am 04:52 Clear 61 16.1 59 15 93 93 N 3 6 30.16 1022 10 16 0.00 0.00
5:52 am 05:52 Clear 56 13.3 56 13.3 100 100 Calm 30.18 1022 10 16 0.00 0.00
6:52 am 06:52 Sunny 60 15.6 57 13.9 90 90 Calm 30.19 1022 10 16 0.00 0.00
7:52 am 07:52 Sunny 63 17.2 59 15 87 87 NE 5 7 30.20 1023 10 16 0.00 0.00
8:52 am 08:52 Mostly Sunny 67 19.4 59 15 76 76 E 3 6 30.20 1023 10 16 0.00 0.00
9:52 am 09:52 Mostly Sunny 71 21.7 59 15 66 66 E 7 11 30.20 1023 10 16 0.00 0.00
10:52 am 10:52 Sunny 74 23.3 55 12.8 52 52 E 7 11 30.21 1023 10 16 0.00 0.00
11:52 am 11:52 Sunny 76 24.4 57 13.9 52 52 ESE 12 19 30.21 1023 10 16 0.00 0.00
12:52 pm 12:52 Sunny 77 25 57 13.9 50 50 SE 10 17 30.19 1022 10 16 0.00 0.00
1:52 pm 13:52 Sunny 79 26.1 56 13.3 45 45 E 8 13 30.17 1022 10 16 0.00 0.00
2:52 pm 14:52 Mostly Sunny 80 26.7 55 12.8 42 42 SE 8 13 30.16 1022 10 16 0.00 0.00
3:52 pm 15:52 Mostly Sunny 81 27.2 53 11.7 38 38 ESE 12 19 30.14 1021 10 16 0.00 0.00
4:52 pm 16:52 Partly Cloudy 81 27.2 50 10 34 34 SE 7 11 30.13 1020 10 16 0.00 0.00
5:52 pm 17:52 Partly Cloudy 79 26.1 50 10 36 36 E 8 13 30.13 1020 10 16 0.00 0.00
6:52 pm 18:52 Mostly Sunny 79 26.1 49 9.4 35 35 ESE 14 22 30.12 1020 10 16 0.00 0.00
7:52 pm 19:52 Mostly Sunny 76 24.4 51 10.6 42 42 ESE 10 17 30.12 1020 10 16 0.00 0.00
8:52 pm 20:52 Mostly Clear 73 22.8 53 11.7 50 50 ESE 7 11 30.12 1020 10 16 0.00 0.00
9:52 pm 21:52 Mostly Clear 71 21.7 55 12.8 57 57 E 5 7 30.13 1020 10 16 0.00 0.00
10:52 pm 22:52 Mostly Clear 70 21.1 56 13.3 61 61 E 5 7 30.14 1021 10 16 0.00 0.00
11:52 pm 23:52 Partly Cloudy 67 19.4 57 13.9 71 71 E 6 9 30.14 1021 10 16 0.00 0.00

Powered by AerisWeather